Location: Maccacari
(45.1333°N, 11.1333°E)
Time: 08:37:08
(UTC+00:00)

USA 238 - Pass Details

Date: 18 September 2020
Orbit: 1006 x 1206 km, 63.4° (Epoch: 28 October)

Event Time Altitude Azimuth Distance (km) Brightness Sun altitude
Rises 19:33:19 0° 321° (NW) 3,950 7.8 -23.4°
Reaches altitude 10° 19:35:57 10° 321° (NW) 3,016 7.0 -23.8°
Maximum altitude 19:43:12 85° 234° (SW) 1,176 3.8 -24.9°
Enters shadow 19:45:45 46° 150° (SSE) 1,538 4.1 -25.3°
